[[{"header":{"parameterUnit":"m.s-1","parameterCategory":1,"la1":30.2992,"la2":30.254,"lo1":-89.0895,"lo2":-89.0443,"dy":0.0025,"dx":0.0025,"nx":19,"ny":19,"refTime":"2026-04-22T03:00:00:Z","depth":0,"parameterNumber":2,"parameterNumberName":"U-component_of_WINDS"},"data":[0,0,0,-3.722,-3.7222,-3.7271,-3.7271,-3.7339,-3.734,0,0,0,0,0,0,0,0,0,0,0,-3.7211,-3.7211,-3.722,-3.7222,-3.7271,-3.7271,-3.7339,-3.734,0,0,0,0,0,0,0,0,0,0,0,-3.721,-3.7211,-3.7212,-3.7222,-3.7271,-3.7271,-3.7339,-3.73,0,0,0,0,0,0,0,0,0,0,-3.7251,-3.7247,-3.7211,-3.7212,-3.7222,-3.7271,-3.7271,-3.7298,-3.7302,-3.732,0,-3.7338,0,-3.7341,-3.7345,-3.7345,0,0,0,-3.7218,-3.7243,-3.7252,-3.7212,-3.7223,-3.7271,-3.7248,-3.73,-3.7305,-3.7326,-3.7339,-3.7342,-3.7342,-3.7346,-3.7346,-3.7464,-3.7465,0,0,-3.7215,-3.7222,-3.7249,-3.7256,-3.725,-3.7246,-3.7249,-3.7303,-3.7317,-3.734,-3.7343,-3.7343,-3.7346,-3.7347,-3.7464,-3.7465,0,0,0,-3.721,-3.722,-3.7228,-3.7253,-3.7262,-3.7248,-3.7251,-3.7315,-3.7317,-3.7344,-3.7344,-3.7347,-3.7348,-3.7463,-3.7464,-3.7505,0,0,0,-3.7208,-3.7217,-3.7227,-3.7231,-3.7261,-3.7289,-3.7262,-3.7313,-3.7319,-3.7343,-3.7347,-3.7348,-3.7462,-3.7463,-3.7502,-3.7522,0,0,0,-3.7206,-3.7217,-3.7226,-3.7231,-3.7253,-3.7288,-3.7293,-3.7314,-3.7319,-3.7346,-3.7349,-3.7462,-3.7463,-3.75,-3.7518,-3.7553,0,0,0,-3.7205,-3.7262,-3.7226,-3.729,-3.7253,-3.7315,-3.7293,-3.7339,-3.7366,-3.7347,-3.7462,-3.7464,-3.7499,-3.7516,-3.7551,-3.7582,-3.7596,0,0,-3.728,-3.7271,-3.7309,-3.7278,-3.7348,-3.7307,-3.7383,-3.7401,-3.7398,-3.7442,-3.7445,-3.7503,-3.7518,-3.7553,-3.7682,-3.7693,0,0,0,-3.7335,-3.7361,-3.7378,-3.7405,-3.7422,-3.7437,-3.7444,-3.7451,-3.7488,-3.7422,-3.7527,-3.7536,-3.7556,-3.757,-3.758,-3.7595,-3.7472,-3.7472,-3.7472,-3.7449,-3.7442,-3.7502,-3.7501,-3.7528,-3.7535,-3.7555,-3.7565,-3.755,-3.7575,-3.7587,-3.7666,-3.7683,-3.769,-3.7707,-3.7606,-3.7606,-3.7606,-3.7606,-3.7556,-3.7591,-3.7571,-3.7622,-3.7614,-3.7656,-3.7665,-3.7653,-3.769,-3.7657,-3.7674,-3.7635,-3.7703,-3.7717,-3.7609,-3.7609,-3.7608,-3.7608,-3.7608,-3.7627,-3.7642,-3.7651,-3.7689,-3.7719,-3.7717,-3.7753,-3.7745,-3.7738,-3.7755,-3.7765,-3.7764,-3.776,-3.7761,-3.7762,-3.7762,-3.7762,-3.7762,-3.7763,-3.7696,-3.7704,-3.7736,-3.7759,-3.7775,-3.7795,-3.7803,-3.7818,-3.7832,-3.7824,-3.7824,-3.7804,-3.7713,-3.7688,-3.7767,-3.7766,-3.7765,-3.7765,-3.7765,-3.7801,-3.7776,-3.7825,-3.7841,-3.7867,-3.7896,-3.7887,-3.7918,-3.7929,-3.7947,-3.7926,-3.7861,-3.785,-3.7842,-3.7821,-3.7929,-3.7929,-3.7929,-3.7929,-3.7858,-3.7853,-3.79,-3.7926,-3.7951,-3.7948,-3.8001,-3.8009,-3.8012,-3.8018,-3.8002,-3.7975,-3.7968,-3.7961,-3.7951,-3.793,-3.8064,-3.8064,-3.8065,-3.792,-3.7918,-3.7965,-3.7969,-3.7989,-3.8005,-3.8055,-3.8084,-3.8083,-3.807,-3.8022,-3.8016,-3.7972,-3.7959,-3.7941,-3.7925,-3.7888,0,0]},{"header":{"parameterUnit":"m.s-1","parameterCategory":1,"la1":30.2992,"la2":30.254,"lo1":-89.0895,"lo2":-89.0443,"dy":0.0025,"dx":0.0025,"nx":19,"ny":19,"refTime":"2026-04-22T03:00:00:Z","depth":0,"parameterNumber":3,"parameterNumberName":"V-component_of_WINDS"},"data":[0,0,0,3.271,3.2715,3.2941,3.2942,3.321,3.3213,0,0,0,0,0,0,0,0,0,0,0,3.263,3.2631,3.271,3.2715,3.2941,3.2942,3.321,3.3213,0,0,0,0,0,0,0,0,0,0,0,3.2629,3.2631,3.2632,3.2716,3.294,3.2942,3.3209,3.3046,0,0,0,0,0,0,0,0,0,0,3.2831,3.2743,3.263,3.2632,3.2717,3.294,3.2942,3.3039,3.3057,3.3099,0,3.3132,0,3.3176,3.3229,3.323,0,0,0,3.2725,3.2728,3.2801,3.2633,3.2719,3.294,3.2842,3.3049,3.3069,3.3122,3.3136,3.3147,3.3181,3.3231,3.3232,3.3442,3.3442,0,0,3.2713,3.2663,3.2787,3.2813,3.2776,3.2834,3.2849,3.3062,3.3073,3.3137,3.3153,3.3185,3.3232,3.3234,3.3441,3.3442,0,0,0,3.267,3.2654,3.2723,3.2802,3.2844,3.2841,3.2857,3.3064,3.3091,3.3156,3.3188,3.3234,3.3237,3.3441,3.3442,3.3419,0,0,0,3.2663,3.2629,3.2716,3.2688,3.2839,3.2957,3.2854,3.3076,3.3101,3.3187,3.3234,3.3239,3.344,3.3441,3.3418,3.3416,0,0,0,3.262,3.2624,3.2652,3.2685,3.278,3.2954,3.2993,3.3083,3.3121,3.323,3.324,3.344,3.3441,3.3418,3.3415,3.3458,0,0,0,3.2559,3.2627,3.2651,3.274,3.2778,3.2938,3.2993,3.3114,3.3205,3.3235,3.344,3.3441,3.3418,3.3415,3.3457,3.3485,3.3492,0,0,3.2617,3.2632,3.2689,3.2717,3.286,3.2907,3.3048,3.3179,3.3235,3.337,3.3376,3.3418,3.3415,3.3458,3.3546,3.355,0,0,0,3.2691,3.2731,3.278,3.2865,3.2966,3.3054,3.3169,3.3218,3.3335,3.3293,3.3446,3.3446,3.3473,3.3489,3.3493,3.352,3.3446,3.3446,3.3446,3.2701,3.2771,3.287,3.2967,3.3048,3.3167,3.3241,3.3327,3.3372,3.3407,3.3447,3.3492,3.3509,3.3512,3.354,3.3467,3.3467,3.3467,3.3467,3.2795,3.2863,3.2923,3.3041,3.3114,3.3214,3.3332,3.3361,3.3466,3.3467,3.3494,3.3489,3.3515,3.3543,3.3466,3.3466,3.3466,3.3467,3.3467,3.281,3.2855,3.2914,3.3046,3.314,3.3236,3.3335,3.3398,3.3458,3.3485,3.3536,3.3537,3.3546,3.3505,3.3505,3.3505,3.3506,3.3506,3.3506,3.2802,3.287,3.2945,3.3061,3.3125,3.3218,3.334,3.3406,3.3495,3.3533,3.3534,3.3576,3.3505,3.3486,3.3508,3.3508,3.3508,3.3507,3.3507,3.2871,3.2867,3.2982,3.3047,3.319,3.3281,3.3361,3.349,3.3553,3.3601,3.3639,3.3575,3.3595,3.3592,3.3577,3.3622,3.3622,3.3622,3.3622,3.2885,3.2901,3.3036,3.3135,3.324,3.3325,3.3457,3.3554,3.3653,3.3698,3.3701,3.3686,3.368,3.3704,3.3699,3.3686,3.3757,3.3758,3.3758,3.2932,3.2962,3.3061,3.3158,3.3276,3.3376,3.3502,3.3616,3.3728,3.3765,3.3735,3.3729,3.3706,3.3695,3.3729,3.3719,3.3697,0,0]}]]